• Em Portugal
  • Lista de países
  • Para 7 dias
  • Temperatura da água
  • Mapas de satélite
  • Mapa do tempo
  • Widgets de tempo
  • user-avatar
    Iniciar Sessão

    Previsão horária em Jozefow

    Hoje, 24 Setembro, Segunda-feira

    Tempo Temperatura Precipitação Vento Pressão Humidade
    00:00 +16°C° 0.4 mm 9 m/s 737 mmHg 66%
    01:00 +16°C° 0.4 mm 9 m/s 736 mmHg 71%
    02:00 +14°C° 0.4 mm 10 m/s 737 mmHg 74%
    03:00 +13°C° 0.4 mm 10 m/s 738 mmHg 76%
    04:00 +12°C° 0.4 mm 11 m/s 739 mmHg 79%
    05:00 +11°C° 0.1 mm 10 m/s 741 mmHg 78%
    06:00 +9°C° 0.1 mm 8 m/s 743 mmHg 78%
    07:00 +8°C° 0.1 mm 7 m/s 745 mmHg 77%
    08:00 +9°C° 0.3 mm 7 m/s 746 mmHg 75%
    09:00 +9°C° 0.3 mm 8 m/s 747 mmHg 73%
    10:00 +10°C° 0.3 mm 8 m/s 747 mmHg 71%
    11:00 +10°C° 0.2 mm 9 m/s 748 mmHg 68%
    12:00 +10°C° 0.2 mm 9 m/s 748 mmHg 65%
    13:00 +9°C° 0.2 mm 10 m/s 749 mmHg 62%
    14:00 +10°C° 0.1 mm 9 m/s 749 mmHg 59%
    15:00 +10°C° 0.1 mm 9 m/s 749 mmHg 57%
    16:00 +10°C° 0.1 mm 8 m/s 750 mmHg 54%
    17:00 +10°C° 0 mm 7 m/s 750 mmHg 58%
    18:00 +9°C° 0 mm 7 m/s 750 mmHg 62%
    19:00 +8°C° 0 mm 6 m/s 751 mmHg 65%
    20:00 +7°C° 0.1 mm 6 m/s 751 mmHg 68%
    21:00 +7°C° 0.1 mm 6 m/s 752 mmHg 71%
    22:00 +7°C° 0.1 mm 6 m/s 752 mmHg 74%
    23:00 +7°C° 0.2 mm 6 m/s 753 mmHg 77%

    Amanhã, 25 Setembro, Terça-feira

    Tempo Temperatura Precipitação Vento Pressão Humidade
    00:00 +6°C° 0.2 mm 5 m/s 753 mmHg 79%
    01:00 +6°C° 0.2 mm 5 m/s 754 mmHg 81%
    02:00 +5°C° 0 mm 5 m/s 754 mmHg 82%
    03:00 +5°C° 0 mm 5 m/s 755 mmHg 82%
    04:00 +5°C° 0 mm 5 m/s 755 mmHg 83%
    05:00 +5°C° 0 mm 5 m/s 756 mmHg 81%
    06:00 +5°C° 0 mm 5 m/s 756 mmHg 79%
    07:00 +5°C° 0 mm 6 m/s 757 mmHg 78%
    08:00 +7°C° 0 mm 6 m/s 758 mmHg 69%
    09:00 +9°C° 0 mm 6 m/s 758 mmHg 60%
    10:00 +10°C° 0 mm 7 m/s 758 mmHg 51%
    11:00 +11°C° 0.1 mm 7 m/s 759 mmHg 48%
    12:00 +11°C° 0.1 mm 7 m/s 759 mmHg 45%
    13:00 +12°C° 0.1 mm 7 m/s 759 mmHg 42%
    14:00 +13°C° 0 mm 6 m/s 759 mmHg 43%
    15:00 +11°C° 0 mm 6 m/s 759 mmHg 44%
    16:00 +12°C° 0 mm 5 m/s 759 mmHg 45%
    17:00 +11°C° 0 mm 4 m/s 760 mmHg 48%
    18:00 +8°C° 0 mm 4 m/s 761 mmHg 51%
    19:00 +8°C° 0 mm 3 m/s 761 mmHg 54%
    20:00 +7°C° 0 mm 3 m/s 762 mmHg 58%
    21:00 +7°C° 0 mm 3 m/s 762 mmHg 61%
    22:00 +6°C° 0 mm 2 m/s 763 mmHg 64%
    23:00 +5°C° 0 mm 2 m/s 763 mmHg 67%

    Depois de amanhã, 26 Setembro, Quarta-feira

    Tempo Temperatura Precipitação Vento Pressão Humidade
    00:00 +5°C° 0 mm 2 m/s 763 mmHg 70%
    01:00 +4°C° 0 mm 2 m/s 763 mmHg 73%
    02:00 +4°C° 0 mm 2 m/s 763 mmHg 75%
    03:00 +4°C° 0 mm 2 m/s 763 mmHg 76%
    04:00 +4°C° 0 mm 1 m/s 764 mmHg 78%
    05:00 +5°C° 0 mm 1 m/s 764 mmHg 75%
    06:00 +6°C° 0 mm 1 m/s 764 mmHg 73%
    07:00 +7°C° 0 mm 1 m/s 764 mmHg 70%
    08:00 +7°C° 0 mm 2 m/s 764 mmHg 62%
    09:00 +9°C° 0 mm 2 m/s 764 mmHg 54%
    10:00 +11°C° 0 mm 3 m/s 763 mmHg 46%
    11:00 +12°C° 0 mm 3 m/s 763 mmHg 43%
    12:00 +13°C° 0 mm 3 m/s 762 mmHg 39%
    13:00 +14°C° 0 mm 3 m/s 762 mmHg 36%
    14:00 +14°C° 0 mm 3 m/s 761 mmHg 38%
    15:00 +14°C° 0 mm 3 m/s 760 mmHg 40%
    16:00 +14°C° 0 mm 3 m/s 760 mmHg 42%
    17:00 +13°C° 0 mm 3 m/s 760 mmHg 44%
    18:00 +11°C° 0 mm 3 m/s 759 mmHg 46%
    19:00 +10°C° 0 mm 3 m/s 759 mmHg 47%
    20:00 +10°C° 0 mm 3 m/s 759 mmHg 48%
    21:00 +11°C° 0 mm 4 m/s 759 mmHg 50%
    22:00 +11°C° 0 mm 4 m/s 759 mmHg 51%
    23:00 +11°C° 0 mm 4 m/s 758 mmHg 50%

    27 Setembro, Quinta-feira

    Tempo Temperatura Precipitação Vento Pressão Humidade
    00:00 +10°C° 0 mm 5 m/s 758 mmHg 50%
    01:00 +10°C° 0 mm 5 m/s 758 mmHg 49%
    02:00 +10°C° 0 mm 5 m/s 757 mmHg 48%
    03:00 +10°C° 0 mm 5 m/s 757 mmHg 47%
    04:00 +10°C° 0 mm 5 m/s 757 mmHg 46%
    05:00 +10°C° 0 mm 5 m/s 757 mmHg 46%
    06:00 +12°C° 0 mm 5 m/s 757 mmHg 46%
    07:00 +12°C° 0 mm 5 m/s 756 mmHg 46%
    08:00 +13°C° 0 mm 6 m/s 756 mmHg 46%
    09:00 +15°C° 0 mm 6 m/s 756 mmHg 46%
    10:00 +16°C° 0 mm 6 m/s 756 mmHg 46%
    11:00 +17°C° 0 mm 6 m/s 756 mmHg 47%
    12:00 +20°C° 0 mm 6 m/s 755 mmHg 47%
    13:00 +21°C° 0 mm 6 m/s 755 mmHg 48%
    14:00 +21°C° 0 mm 5 m/s 755 mmHg 51%
    15:00 +20°C° 0 mm 5 m/s 754 mmHg 54%
    16:00 +20°C° 0 mm 4 m/s 754 mmHg 56%
    17:00 +19°C° 0 mm 4 m/s 754 mmHg 60%
    18:00 +17°C° 0 mm 3 m/s 754 mmHg 64%
    19:00 +16°C° 0 mm 3 m/s 754 mmHg 67%
    20:00 +14°C° 0 mm 3 m/s 754 mmHg 68%
    21:00 +14°C° 0 mm 3 m/s 753 mmHg 68%
    22:00 +13°C° 0 mm 3 m/s 753 mmHg 68%
    23:00 +13°C° 0 mm 3 m/s 753 mmHg 69%

    28 Setembro, Sexta-feira

    Tempo Temperatura Precipitação Vento Pressão Humidade
    00:00 +13°C° 0 mm 3 m/s 753 mmHg 69%
    01:00 +12°C° 0 mm 3 m/s 752 mmHg 69%
    02:00 +12°C° 0 mm 3 m/s 752 mmHg 69%
    03:00 +12°C° 0 mm 3 m/s 752 mmHg 69%
    04:00 +12°C° 0 mm 3 m/s 751 mmHg 70%
    05:00 +12°C° 0 mm 3 m/s 751 mmHg 68%
    06:00 +13°C° 0 mm 3 m/s 751 mmHg 66%
    07:00 +13°C° 0 mm 3 m/s 751 mmHg 64%
    08:00 +16°C° 0 mm 3 m/s 751 mmHg 62%
    09:00 +17°C° 0 mm 3 m/s 751 mmHg 59%
    10:00 +18°C° 0 mm 3 m/s 752 mmHg 56%
    11:00 +19°C° 0 mm 3 m/s 751 mmHg 55%
    12:00 +20°C° 0 mm 3 m/s 751 mmHg 54%
    13:00 +21°C° 0 mm 3 m/s 751 mmHg 53%
    14:00 +20°C° 0 mm 3 m/s 751 mmHg 57%
    15:00 +20°C° 0 mm 3 m/s 751 mmHg 62%
    16:00 +19°C° 0 mm 3 m/s 751 mmHg 66%
    17:00 +18°C° 0 mm 2 m/s 751 mmHg 72%
    18:00 +16°C° 0 mm 2 m/s 751 mmHg 79%
    19:00 +15°C° 0 mm 2 m/s 751 mmHg 85%
    20:00 +15°C° 0 mm 2 m/s 751 mmHg 84%
    21:00 +15°C° 0 mm 1 m/s 752 mmHg 84%
    22:00 +15°C° 0 mm 1 m/s 752 mmHg 83%
    23:00 +14°C° 0.4 mm 1 m/s 752 mmHg 83%

    29 Setembro, Sábado

    Tempo Temperatura Precipitação Vento Pressão Humidade
    00:00 +14°C° 0.4 mm 2 m/s 752 mmHg 83%
    01:00 +13°C° 0.4 mm 2 m/s 752 mmHg 84%
    02:00 +13°C° 0.5 mm 2 m/s 752 mmHg 84%
    03:00 +12°C° 0.5 mm 2 m/s 752 mmHg 84%
    04:00 +12°C° 0.5 mm 2 m/s 752 mmHg 84%
    05:00 +12°C° 0 mm 2 m/s 753 mmHg 82%
    06:00 +10°C° 0 mm 3 m/s 753 mmHg 80%
    07:00 +10°C° 0 mm 3 m/s 754 mmHg 78%
    08:00 +12°C° 0 mm 3 m/s 754 mmHg 71%
    09:00 +13°C° 0 mm 3 m/s 754 mmHg 64%
    10:00 +14°C° 0 mm 4 m/s 755 mmHg 58%
    11:00 +14°C° 0.1 mm 4 m/s 755 mmHg 55%
    12:00 +14°C° 0.1 mm 4 m/s 755 mmHg 53%
    13:00 +15°C° 0.1 mm 4 m/s 755 mmHg 51%
    14:00 +14°C° 0 mm 4 m/s 755 mmHg 50%
    15:00 +14°C° 0 mm 4 m/s 755 mmHg 50%
    16:00 +13°C° 0 mm 4 m/s 755 mmHg 50%
    17:00 +12°C° 0 mm 3 m/s 756 mmHg 53%
    18:00 +10°C° 0 mm 3 m/s 756 mmHg 55%
    19:00 +9°C° 0 mm 3 m/s 757 mmHg 58%
    20:00 +8°C° 0 mm 3 m/s 757 mmHg 58%
    21:00 +7°C° 0 mm 3 m/s 757 mmHg 58%
    22:00 +7°C° 0 mm 2 m/s 757 mmHg 59%
    23:00 +6°C° 0 mm 2 m/s 757 mmHg 61%
    Mostrar mais